Hourly Data Report for September 10, 2017

All times are specified in Local Standard Time (LST). Add 1 hour to adjust for Daylight Saving Time where and when it is observed.

FISHER BRANCH (AUT)
MANITOBA

51°05'00.100" N
97°33'16.200" W
253.00 m
50309J6
71442
WSZ

Download Data

Hourly Data (September 2017)
Hourly Data Report for September 10, 2017
Temp Definition
°C
Dew Point Temp Definition
°C
Rel Hum Definition
%
Wind Dir Definition
10's deg

Wind Spd Definition
km/h
Visibility Definition
km
Stn Press Definition
kPa
Hmdx Definition


Wind Chill Definition


Weather Definition


TIME
00:00 20.9 14.1 65 17 19   98.46     LegendNANA
01:00 19.8 14.1 70 17 17   98.41     LegendNANA
02:00 18.6 14.0 75 17 16   98.41     LegendNANA
03:00 17.7 14.0 79 17 15   98.40     LegendNANA
04:00 17.1 14.1 83 17 14   98.40     LegendNANA
05:00 16.9 14.2 84 16 18   98.35     LegendNANA
06:00 16.3 14.1 87 16 15   98.35     LegendNANA
07:00 16.9 14.4 86 15 17   98.33     LegendNANA
08:00 19.0 14.9 77 17 19   98.31     LegendNANA
09:00 21.8 15.1 66 17 25   98.25 26   LegendNANA
10:00 22.9 14.8 60 18 28   98.21 27   LegendNANA
11:00 24.4 14.2 53 18 31   98.11 28   LegendNANA
12:00 27.2 14.1 45 17 35   97.97 31   LegendNANA
13:00 27.9 13.6 41 18 33   97.96 31   LegendNANA
14:00 27.4 14.2 44 19 35   97.91 31   LegendNANA
15:00 28.8 14.7 42 18 28   97.86 33   LegendNANA
16:00 27.9 14.4 44 20 21   97.85 32   LegendNANA
17:00 27.3 14.9 47 20 17   97.83 31   LegendNANA
18:00 26.2 15.2 51 20 12   97.83 30   LegendNANA
19:00 24.0 15.4 59 22 8   97.86 28   LegendNANA
20:00 22.9 15.3 62 24 12   97.92 27   LegendNANA
21:00 23.4 13.3 53 27 13   98.00 26   LegendNANA
22:00 20.9 11.8 56 29 16   98.12     LegendNANA
23:00 19.8 8.6 48 28 15   98.18     LegendNANA

Notes on Data Quality.

Legend

  • E = Estimated
  • M = Missing
  • NA = Not Available
  • ‡ = Partner data that is not subject to review by the National Climate Archives
Date modified: